Location: Newark
(54.3386°S, 169.8415°W)
Time: 22:59:57
(UTC+00:00)

Vanguard 1 Rocket - All Passes

Search period start: 17 October 2019 00:00
Search period end: 27 October 2019 00:00
Orbit: 650 x 4226 km, 34.3° (Epoch: 17 October)

Date Brightness Start Highest point End Pass type
(mag) Time Alt. Az. Time Alt. Az. Time Alt. Az.
19 Oct - 11:08:54 10° N 11:09:52 10° N 11:10:46 10° N night (unlit)
20 Oct - 09:57:00 10° N 09:59:09 11° N 10:01:03 10° NNE visible
21 Oct - 08:46:18 10° N 08:48:13 11° NNE 08:49:57 10° NNE visible
21 Oct - 11:09:40 10° NNW 11:12:26 12° N 11:14:47 10° NNE night (unlit)
22 Oct - 09:57:21 10° NNW 10:01:45 14° N 10:05:13 10° NNE visible
23 Oct - 08:45:25 10° NNW 08:50:48 15° N 08:54:57 10° NE visible
23 Oct - 11:11:19 10° NW 11:14:59 14° NNW 11:17:57 10° NNE visible
24 Oct - 07:34:10 10° N 07:39:34 13° NNE 07:43:52 10° NE visible
24 Oct - 09:58:31 10° NW 10:04:18 17° N 10:08:35 10° NE visible
25 Oct - 06:24:54 10° NNE 06:28:04 11° NNE 06:30:53 10° NE daylight
25 Oct - 08:45:54 10° NNW 08:53:21 18° N 08:58:37 10° NE visible
25 Oct - 11:13:15 10° NW 11:17:28 14° NNW 11:20:48 10° NNE visible
26 Oct - 07:33:39 10° NNW 07:42:04 18° NNE 07:48:05 10° NE visible
26 Oct - 10:00:00 10° NW 10:06:50 19° N 10:11:39 10° NNE visible
